FENGYUN 1C DEB

Satellite information

Favourite Embed

Satellite Type and Status

DEBRISIN ORBIT

Key statistics

Satellite FENGYUN 1C DEB at a glance.

Uptime

9656

Days in orbit

Revolutions

≈ 14.6

Per day

Orbit

SSO

Sun Synchronous Orbit

Inclination

99.3

Latest

Satellite identification and parameters

Extended collection of information and parameters for FENGYUN 1C DEB.

Object identification

Identified? True

Debris? True

Object name: FENGYUN 1C DEB

International designator: 1999-025ACM

Object number (NORAD): 30374

Object ID (CCSDS): 30374

Country: PEOPLES REPUBLIC OF CHINA (PRC)

Current information (Y/N): Y

RCS size: SMALL

Orbital parameters

Period: 98.635 minutes

Inclination: 99.2782 deg

SMA: 7071.565 km

Apoapsis: 723.384 km

Periapsis: 663.475 km

RAAN: 145.4967 deg

Eccentricy: 0.00423586

Argument of periapsis: 345.5646 deg

Mean anomaly: 142.6963 deg

Mean motion: 14.59921485 rev/day

Mean motion (dot): 0.000085 rev/day2

B* drag term: 0.0017625379 1/REarth

Two-line elements (TLE)

Creation date: Oct. 16, 2025, 2:37 a.m.

Reference frame: TEME

Reference center: EARTH

Epoch: Oct. 15, 2025, 8:21 p.m. UTC

TLE line 0: 0 FENGYUN 1C DEB

TLE line 1: 1 30374U 99025ACM 25288.84809633 .00008500 00000-0 17625-2 0 9994

TLE line 2: 2 30374 99.2782 145.4967 0042359 345.5646 142.6963 14.59921485980778

Live tracking on map

Real-time ground track for satellite FENGYUN 1C DEB.

In-orbit conjunctions

A list of the most updated potential collisions computed for object FENGYUN 1C DEB.

Target Orbit TCA Probability of collision Miss distance Type
DELTA 1 DEB SSO 2025-09-25 12:43:06 0.0001165033 148.0 (m) DEBRIS
SACI 1 SSO 2025-05-14 10:10:28 0.0008928368 339.0 (m) PAYLOAD
SHIYAN 2 (SY-2) SSO 2025-04-27 02:26:14 0.0001366926 651.0 (m) PAYLOAD
THOR ABLESTAR DEB LEO 2024-09-27 18:22:54 0.0001599284 520.0 (m) DEBRIS

Associated space launch

Chinese polar orbiting meteorological satellite

FENGYUN 1C DEB was lifted into orbit during the mission ‘Long March 4B | Feng Yun 1C’, on board a Long March 4B space rocket.

The launch took place on May 10, 1999, 1:33 a.m. from Launch Complex 7.

For more information about the launch, click the button.

Launch to space Long March 4B | Feng Yun 1C
Long March 4B | Feng Yun 1C

Agency: N/A

Status: Launch Successful

Launch date: May 10, 1999, 1:33 a.m. UTC

Rocket: Long March 4B

Launch pad: Launch Complex 7

Location: Taiyuan Satellite Launch Center, People's Republic of China

...

Latest news about this satellite

There are no fresh news available about this satellite. Check back as we update our databases every day.


Newsletter sign-up

Weekly statistics, charts and insights to help you stay on top of the space industry.